Home > Weather > Bodrum > Past weeks

Flag for Turkey Past Weather in Bodrum, Turkey — Yesterday and Last 2 Weeks

Now
86 °F

Clear.


Feels Like: 87 °F
Forecast: 77 / 90 °F
Wind: 7 mph from North

Location: Bodrum

Current Time: Jul 1, 2016 at 12:19:53 AM

Latest Report: Jun 30, 2016 at 9:00 PM


Visibility: 13 mi

Pressure: 29.83 "Hg

Humidity: 46%

Dew Point: 63 °F

Location of BodrumLocation

Past Weather in Bodrum — Graph

°F

Bodrum Temperature Yesterday

Maximum temperature yesterday: 97 °F (at 5:00 PM)
Minimum temperature yesterday: 78 °F (at 6:00 AM)
Average temperature yesterday: 89 °F

High & Low Weather Summary for the Past Weeks

 TemperatureHumidityPressure
High107 °F (Jun 18, 3:00 PM)87% (Jun 25, 3:00 AM)29.95 "Hg (Jun 25, 3:00 AM)
Low71 °F (Jun 16, 3:00 AM)12% (Jun 18, 2:00 PM)29.67 "Hg (Jun 24, 8:00 PM)
Average89 °F45%29.79 "Hg
* Reported Jun 15 9:00 PM — Jun 30 9:00 PM, Bodrum, Weather by CustomWeather, © 2016

Note: Actual official high and low records may vary slightly from our data, if they occured in-between our weather recording intervals... More about our weather records

Advertising

Bodrum Weather History for the Previous 24 Hours

Scroll right to see more
 ConditionsComfort  
Time TempWeatherWind HumidityBarometerVisibility
9:00 PM
Thu, Jun 30
86 °FClear.7 mph46%29.83 "Hg12 mi
8:00 PM88 °FSunny.9 mph37%29.82 "Hg12 mi
7:00 PM92 °FSunny.7 mph34%29.82 "Hg12 mi
6:00 PM94 °FSunny.12 mph30%29.82 "Hg12 mi
5:00 PM97 °FSunny.7 mph29%29.83 "Hg12 mi
4:00 PM94 °FSunny.10 mph31%29.84 "Hg12 mi
3:00 PM95 °FSunny.8 mph32%29.84 "Hg12 mi
2:00 PM92 °FSunny.10 mph36%29.85 "Hg12 mi
1:00 PM93 °FSunny.5 mph34%29.86 "Hg12 mi
12:00 PM93 °FSunny.5 mph29%29.86 "Hg12 mi
11:00 AM90 °FSunny.2 mph35%29.85 "Hg12 mi
10:00 AM84 °FSunny.2 mph48%29.85 "Hg12 mi
9:00 AM86 °FSunny.2 mph45%29.84 "Hg12 mi
6:00 AM78 °FSunny.9 mph53%29.79 "Hg12 mi
3:00 AM79 °FClear.7 mph55%29.78 "Hg12 mi
12:00 AM81 °FClear.6 mph54%29.79 "Hg12 mi
Weather by CustomWeather, © 2016

See weather overviewHow to use our weather pages